DAMPETORP Weather Reports


time (UTC)temp
C
wind
direction
speed
KPH
gust
KPH
rain 1hr
cm
rain 24hr
cm
rain mn
cm
humidity
%
barometer
mb
20260506144523 13 51 0.0 9.7 0.00 0.00 0.00 21 1009.8
20260506143023 13 321 1.6 9.7 0.00 0.00 0.00 23 1009.9
20260506141521 13 336 1.6 12.9 0.00 0.00 0.00 22 1010.0
20260506140021 13 340 4.8 11.3 0.00 0.00 0.00 21 1010.2
20260506134518 12 96 1.6 11.3 0.00 0.00 0.00 22 1010.2
20260506133019 13 51 3.2 14.5 0.00 0.00 0.00 20 1010.3
20260506131524 13 110 4.8 12.9 0.00 0.00 0.00 24 1010.4
20260506130014 12 11 0.0 16.1 0.00 0.00 0.00 28 1010.6
20260506124513 13 336 6.4 12.9 0.00 0.00 0.00 25 1010.6
20260506123013 12 354 4.8 11.3 0.00 0.00 0.00 26 1010.6
20260506121513 12 73 3.2 20.9 0.00 0.00 0.00 27 1010.8
20260506120018 12 38 8.0 17.7 0.00 0.00 0.00 27 1010.8
20260506114519 12 128 1.6 14.5 0.00 0.00 0.00 26 1010.8
20260506113023 12 317 4.8 14.5 0.00 0.00 0.00 26 1010.9
20260506111512 12 337 1.6 14.5 0.00 0.00 0.00 28 1010.9
20260506110011 11 359 1.6 20.9 0.00 0.00 0.00 29 1011.0
20260506104507 11 14 3.2 17.7 0.00 0.00 0.00 30 1011.1
20260506103011 11 83 3.2 16.1 0.00 0.00 0.00 31 1011.1
20260506101509 11 137 4.8 12.9 0.00 0.00 0.00 29 1011.3
20260506100009 12 122 1.6 14.5 0.00 0.00 0.00 30 1011.4
20260506094505 11 335 3.2 20.9 0.00 0.00 0.00 28 1011.3
20260506093002 11 104 3.2 11.3 0.00 0.00 0.00 27 1011.3
20260506091500 12 191 1.6 8.0 0.00 0.00 0.00 24 1011.4
20260506090104 11 195 1.6 11.3 0.00 0.00 0.00 26 1011.5
20260506084606 11 145 0.0 9.7 0.00 0.00 0.00 29 1011.6
20260506083057 11 318 9.7 14.5 0.00 0.00 0.00 26 1011.6
20260506081554 11 316 0.0 8.0 0.00 0.00 0.00 29 1011.6
20260506080104 11 330 4.8 11.3 0.00 0.00 0.00 27 1011.6
20260506073048 11 309 0.0 12.9 0.00 0.00 0.00 33 1011.6
20260506071545 10 293 0.0 8.0 0.00 0.00 0.00 38 1011.5
20260506061533 7 325 3.2 9.7 0.00 0.00 0.00 50 1011.7
20260506044511 2 309 0.0 0.0 0.00 0.00 0.00 81 1011.5
20260506043011 1 309 0.0 0.0 0.00 0.00 0.00 81 1011.4
20260506041507 1 309 0.0 0.0 0.00 0.00 0.00 82 1011.3
20260506040003 0 309 0.0 0.0 0.00 0.00 0.00 88 1011.3
20260506034615 -1 309 0.0 0.0 0.00 0.00 0.00 91 1011.2
20260506033058 -3 309 0.0 0.0 0.00 0.00 0.00 92 1011.1
20260506031607 -3 309 0.0 0.0 0.00 0.00 0.00 92 1011.1
20260506030055 -3 49 0.0 0.0 0.00 0.00 0.00 91 1011.0
20260506024613 -3 49 0.0 0.0 0.00 0.00 0.00 91 1011.0
20260506023052 -3 49 0.0 0.0 0.00 0.00 0.00 91 1010.9
20260506021553 -3 49 0.0 0.0 0.00 0.00 0.00 90 1010.9
20260506020048 -3 49 0.0 0.0 0.00 0.00 0.00 90 1010.8
20260506014550 -3 49 0.0 0.0 0.00 0.00 0.00 90 1010.8
20260506013100 -3 49 0.0 0.0 0.00 0.00 0.00 89 1010.7
20260506011544 -3 49 0.0 1.6 0.00 0.00 0.00 89 1010.7
20260506010042 -3 49 0.0 0.0 0.00 0.00 0.00 88 1010.6
20260506004539 -2 49 0.0 0.0 0.00 0.00 0.00 88 1010.5
20260506003039 -2 49 0.0 0.0 0.00 0.00 0.00 86 1010.4
20260506001538 -2 49 0.0 0.0 0.00 0.00 0.00 86 1010.3
20260506000033 -2 49 0.0 0.0 0.00 0.00 0.00 85 1010.2
20260505234536 -2 49 0.0 0.0 0.00 0.00 0.00 85 1010.2
20260505233029 -2 49 0.0 0.0 0.00 0.00 0.00 84 1010.3
20260505231530 -2 49 0.0 0.0 0.00 0.00 0.00 84 1010.3
20260505230045 -2 49 0.0 0.0 0.00 0.00 0.00 82 1010.2
20260505224524 -1 49 0.0 0.0 0.00 0.00 0.00 82 1010.1
20260505223027 -1 49 0.0 0.0 0.00 0.00 0.00 82 1010.1
20260505221520 -1 49 0.0 0.0 0.00 0.00 0.00 79 1010.1
20260505220016 -1 49 0.0 0.0 0.00 0.00 0.00 78 1009.9
20260505214515 0 49 0.0 1.6 0.00 0.00 0.00 76 1009.8
20260505213012 0 49 0.0 0.0 0.00 0.00 0.00 74 1009.8
20260505211509 0 49 0.0 0.0 0.00 0.00 0.00 72 1009.6
20260505210006 0 49 0.0 1.6 0.00 0.00 0.00 69 1009.5
20260505204503 1 49 0.0 1.6 0.00 0.00 0.00 69 1009.4
20260505203002 1 49 0.0 0.0 0.00 0.00 0.00 67 1009.1
20260505201600 1 49 0.0 1.6 0.00 0.00 0.00 66 1009.0
20260505200059 1 48 0.0 0.0 0.00 0.00 0.00 64 1009.0
20260505194604 2 48 0.0 3.2 0.00 0.00 0.00 60 1008.9
20260505193047 3 84 0.0 1.6 0.00 0.00 0.00 59 1008.8
20260505191544 4 101 0.0 1.6 0.00 0.00 0.00 52 1008.7
20260505190045 5 133 0.0 1.6 0.00 0.00 0.00 49 1008.6
20260505184540 6 133 0.0 1.6 0.00 0.00 0.00 42 1008.5
20260505183038 7 133 0.0 1.6 0.00 0.00 0.00 37 1008.3
20260505181537 8 133 0.0 3.2 0.00 0.00 0.00 35 1008.1
20260505180136 8 78 1.6 6.4 0.00 0.00 0.00 34 1008.0
20260505174534 8 124 4.8 9.7 0.00 0.00 0.00 32 1007.9
20260505173042 8 118 3.2 14.5 0.00 0.00 0.00 32 1007.9
20260505171534 8 142 3.2 14.5 0.00 0.00 0.00 31 1007.8
20260505170037 9 166 1.6 12.9 0.00 0.00 0.00 32 1007.7
20260505164547 9 14 4.8 16.1 0.00 0.00 0.00 31 1007.7
20260505163031 10 82 3.2 19.3 0.00 0.00 0.00 30 1007.7
20260505161529 10 25 8.0 20.9 0.00 0.00 0.00 30 1007.7
20260505153035 10 153 9.7 16.1 0.00 0.00 0.00 30 1007.6
20260505151525 10 148 4.8 22.5 0.00 0.00 0.00 31 1007.6